This demonstration page uses our WeatherBlox Daily Observations layout. Learn more.

39.08367, -84.50855

Hourly Observations for June 9, 2019

Temp ( °F °C ) Dew Point ( °F °C ) Humidity (%) Winds ( mph kmh ) Pressure ( in mb ) Visibility ( mi km ) Precip ( " mm )
12:53 am 00:53 Partly Cloudy with Light Rain 68 20 65 18.3 90 90 ENE 5 7 29.91 1013 10 16.09344 0.02 0.508
1:53 am 01:53 Mostly Cloudy with Light Rain 68 20 65 18.3 90 90 NE 5 7 29.91 1013 10 16.09344 0.01 0.254
2:53 am 02:53 Mostly Cloudy with Light Rain 68 20 65 18.3 90 90 ENE 3 6 29.88 1012 10 16.09344 0.001 0.001
3:53 am 03:53 Mostly Cloudy with Light Rain 68 20 65 18.3 90 90 VRB 3 6 29.88 1012 10 16.09344 0.001 0.001
4:53 am 04:53 Cloudy with Light Rain 68 20 65 18.3 90 90 ENE 6 9 29.88 1012 10 16.09344 0.02 0.508
5:53 am 05:53 Cloudy 68 20 65 18.3 90 90 NE 5 7 29.88 1012 10 16.09344 0.001 0.001
6:53 am 06:53 Cloudy with Light Rain 68 20 65 18.3 90 90 VRB 7 11 29.91 1013 9 14.484096 0.01 0.254
7:53 am 07:53 Cloudy with Light Rain 69 20.6 65 18.3 87 87 E 6 9 29.91 1013 10 16.09344 0.01 0.254
8:53 am 08:53 Cloudy 70 21.1 66 18.9 87 87 VRB 5 7 29.94 1014 10 16.09344 0.001 0.001
9:32 am 09:32 Mostly Cloudy 71 21.7 66 18.9 84 84 E 9 15 29.94 1014 10 16.09344 0 0
9:53 am 09:53 Cloudy 71 21.7 66 18.9 84 84 ESE 8 13 29.94 1014 10 16.09344 0 0
10:20 am 10:20 Cloudy with Light Rain 71 21.7 67 19.4 87 87 VRB 6 9 29.94 1014 10 16.09344 0.001 0.001
10:53 am 10:53 Cloudy with Light Rain 71 21.7 67 19.4 87 87 VRB 7 11 29.94 1014 10 16.09344 0.01 0.254
11:15 am 11:15 Cloudy with Light Rain 71 21.7 68 20 90 90 VRB 7 11 29.94 1014 10 16.09344 0.001 0.001
11:22 am 11:22 Cloudy with Light Rain 72 22.2 68 20 87 87 ESE 8 13 29.94 1014 10 16.09344 0.01 0.254
11:53 am 11:53 Cloudy with Light Rain 72 22.2 68 20 87 87 VRB 6 9 29.94 1014 10 16.09344 0.01 0.254
12:03 pm 12:03 Cloudy 73 22.8 68 20 84 84 ESE 10 17 29.94 1014 10 16.09344 0.001 0.001
12:53 pm 12:53 Cloudy 73 22.8 68 20 84 84 VRB 6 9 29.94 1014 10 16.09344 0.001 0.001
1:53 pm 13:53 Cloudy 77 25 70 21.1 79 79 SE 9 15 29.91 1013 10 16.09344 0 0
2:06 pm 14:06 Cloudy 77 25 69 20.6 77 77 VRB 7 11 29.91 1013 10 16.09344 0 0
2:31 pm 14:31 Cloudy 76 24.4 69 20.6 79 79 SSE 7 11 29.91 1013 10 16.09344 0 0
2:53 pm 14:53 Cloudy 78 25.6 70 21.1 76 76 E 10 17 29.91 1013 10 16.09344 0 0
3:07 pm 15:07 Cloudy 77 25 69 20.6 77 77 E 9 15 29.91 1013 10 16.09344 0 0
3:51 pm 15:51 Cloudy 77 25 70 21 79 79 ESE 10 17 29.91 1013 10 16.09344 0 0
3:53 pm 15:53 Cloudy 77 25 69 20.6 77 77 ESE 9 15 29.91 1013 10 16.09344 0 0
4:15 pm 16:15 Cloudy 78 25.6 70 21.1 76 76 ESE 8 13 29.91 1013 10 16.09344 0 0
4:35 pm 16:35 Mostly Cloudy 78 25.6 69 20.6 74 74 ESE 9 15 29.91 1013 10 16.09344 0 0
4:53 pm 16:53 Mostly Cloudy 78 25.6 69 20.6 74 74 ESE 9 15 29.88 1012 10 16.09344 0 0
5:15 pm 17:15 Partly Cloudy 78 25.6 70 21.1 76 76 ESE 6 9 29.91 1013 10 16.09344 0 0
5:53 pm 17:53 Mostly Cloudy 79 26.1 69 20.6 72 72 ESE 7 11 29.88 1012 10 16.09344 0 0
6:08 pm 18:08 Partly Cloudy 78 25.6 70 21.1 76 76 SE 8 13 29.91 1013 8 12.874752 0 0
6:53 pm 18:53 Partly Cloudy 78 25.6 69 20.6 74 74 SE 8 13 29.88 1012 10 16.09344 0 0
7:53 pm 19:53 Sunny 77 25 69 20.6 77 77 ESE 5 7 29.88 1012 10 16.09344 0 0
8:53 pm 20:53 Cloudy 76 24.4 69 20.6 79 79 Calm 29.91 1013 10 16.09344 0 0
9:53 pm 21:53 Mostly Cloudy 73 22.8 70 21.1 90 90 Calm 29.91 1013 10 16.09344 0 0
10:53 pm 22:53 Mostly Clear with Light Rain 71 21.7 69 20.6 94 94 Calm 29.91 1013 10 16.09344 0.001 0.001
11:53 pm 23:53 Cloudy with Rain 72 22.2 71 21.7 97 97 undefined N/A 29.88 1012 8 12.874752 0.07 1.778

Powered by AerisWeather